Weather in Pokrovka

Russia / Primorsky Krai     46°00′33″N   134°09′30″E
temp.,
°C
wind,
m/s
gust,
m/s
humid.,
%
clouds,
%
prec.,
mm/h
press.,
hPa
HPBL,
m
26 june, sun
sun2601:00+17sw129878 1.3 99767
04:00+16w249999 1.7 999163
07:00+17wsw249992 0.3 1000205
10:00+18wnw3596100 1.0 1002475
13:00+17n339287 0.3 1003383
16:00+20nne338197 0.3 1003735
19:00+19ne238211 0.1 1004427
22:00+16n119354 0.1 100512
27 june, mon
mon2701:00+14nw229598 0.0 100623
04:00+13nw119690 0.0 100813
07:00+14n019396 0.0 1009101
10:00+19wsw117616 0.0 1009609
13:00+23nw12610 0.0 1008908
16:00+25w22585 0.0 10061099
19:00+24wsw12766 0.0 1006185
22:00+18ne2285100 0.0 100611
28 june, tue
tue2801:00+16e2290100 0.0 100615
04:00+15e2291100 0.0 100436
07:00+16ene2588100 0.0 1003127
10:00+20ene3677100 0.0 1001312
13:00+23e3676100 0.0 999501
16:00+20ese5892100 0.7 998461
19:00+18e31297100 4.1 998544
22:00+17e259898 6.0 998161
29 june, wed
wed2901:00+17n259662 0.0 999112
04:00+15n11960 0.0 100014
07:00+17e11940 0.0 100360
10:00+22ene11740 0.0 1004489
13:00+26w12570 0.0 10051040
16:00+27w22540 0.0 10041216
19:00+25wsw24735 0.0 1005122
22:00+20wsw227848 0.0 100713
30 june, thu
thu3001:00+18sw3795100 0.0 1009181
04:00+16sw229695 0.0 101055
07:00+18sse1191100 0.0 101289
10:00+22s1175100 0.0 1011466
13:00+27e126492 0.0 1011939
16:00+28nne116080 0.1 1009732
19:00+23wsw3687100 0.8 1010122
22:00+19wsw3795100 1.3 1012194